Other Public Products
Issued by NWS Charleston, SC

Home | Current Version | Previous Version | Text Only | Print | Product List | Glossary On
Versions: 1 2 3 4 5 6 7 8 9 10 11 12 13 14 15 16 17 18 19 20 21 22 23 24 25 26 27 28 29 30 31 32 33 34 35 36 37 38 39 40 41 42 43 44 45 46 47 48 49 50
000
FPUS82 KCHS 180827
OPUCHS

TEST...KCHS/KSAV Gateway Observations...TEST
National Weather Service Charleston SC
300 AM EST THU JAN 18 2018

NOTE: "fair" indicates few or no clouds below 12,000 feet with no
significant weather and/or obstructions to visibility.

SCZ050-WAZ558-NCZ071-TXZ119-213-PAZ071-DCZ001-FLZ074-172-MI076-
NYZ176-178-MAZ016-IL014-TNZ027-NJZ106-GAZ044-MD014-180900-

...Gateway Observations for Charleston International...

CITY           SKY/WX    TMP DP  RH WIND       PRES   REMARKS
Chas Airport   FAIR      28  19  69 NW14      30.30R WCI  17
Seattle        CLOUDY    51  41  68 S15       29.75S
Charlotte      FAIR      14   7  73 NW6       30.29F WCI   5
Dallas DFW     CLOUDY    24  10  55 CALM      30.55F
Dallas Love    CLOUDY    24  11  57 CALM      30.57F
Philladelphia  FAIR      19   7  59 NW14      30.14F WCI   6
Wash National  FAIR      19   7  59 NW16      30.19F WCI   4
Baltimore      FAIR      17   8  67 NW12      30.15F WCI   4
Miami          MOCLDY    51  36  56 NW12      30.23S
Detroit        CLOUDY    14   6  70 SW20      30.12F WCI  -3
Newark         FAIR      19   9  65 NW10      30.13F WCI   7
Laguardia      FAIR      22  10  60 NW17      30.12F WCI   8
J F K          FAIR      21  10  62 NW18      30.13S WCI   6
Boston Logan   FAIR      28  22  78 W12       30.00F WCI  18
Ft. Lauderdale MOCLDY    48  41  76 NW9G18    30.22F
Chicago O`Hare FAIR      17   9  70 SW18G24   30.17S WCI   1
Chicago Midway FAIR      18  10  71 SW16G23   30.20S WCI   3
Houston Bush   CLOUDY    22  17  81 NE3       30.60F
Houston Hobby  FAIR      27  18  69 E3        30.60F
Nashville      FAIR       9   5  84 S3        30.54F
Atlanta        FAIR      15   8  73 NW13      30.41R WCI   1

$$

GAZ044-118-TXZ119-213-NCZ071-DCZ001-MDZ014-506-PAZ021-071-NJZ106-
NYZ176-178-MAZ106-OHZ011-021-055-MIZ076-KYZ091-ILZ014-INZ047-
MNZ060-ONZ431-180900-

...Gateway Observations for Savannah International...

CITY           SKY/WX    TMP DP  RH WIND       PRES   REMARKS
Savannah Arpt  FAIR      26  12  55 W10       30.37R WCI  16
Atlanta        FAIR      15   8  73 NW13      30.41R WCI   1
Charlotte      FAIR      14   7  73 NW6       30.29F WCI   5
Dallas DFW     CLOUDY    24  10  55 CALM      30.55F
Houston Bush   CLOUDY    22  17  81 NE3       30.60F
Wash National  FAIR      19   7  59 NW16      30.19F WCI   4
Wash Dulles    FAIR      17   7  64 NW14G20   30.20F WCI   3
Baltimore      FAIR      17   8  67 NW12      30.15F WCI   4
Philadelphia   FAIR      19   7  59 NW14      30.14F WCI   6
Newark         FAIR      19   9  65 NW10      30.13F WCI   7
Laguardia      FAIR      22  10  60 NW17      30.12F WCI   8
J F K          FAIR      21  10  62 NW18      30.13S WCI   6
Boston         FAIR      28  22  78 W12       30.00F WCI  18
Pittsburg      FAIR       8   4  83 SW10      30.26S WCI  -6
Akron          FAIR      10   4  76 SW16      30.21F WCI  -7
Cleveland      FAIR      17   5  59 SW15G24   30.21S WCI   2
Cincinnati     FAIR      11   7  84 SW9       30.39S WCI  -2
Columbus       FAIR      12   8  85 SW12      30.34S WCI  -2
Detroit        CLOUDY    14   6  70 SW20      30.12F WCI  -3
Chicago O`Hare FAIR      17   9  70 SW18G24   30.17S WCI   1
Minneapolis    FAIR      22  16  78 SW7       30.01F WCI  13
Indianapolis   FAIR      10   5  80 SW12      30.36F WCI  -5
Toronto Canada CLEAR     18   9  68 SW10G18   30.02S WCI   6

$$




USA.gov is the U.S. government's official web portal to all federal, state and local government web resources and services.